Tracking 19717 objects as of 24-Jun-2019
HD Live streaming from Space Station
objects crossing your sky now

LEASAT 1

Track LEASAT 1 now!
LEASAT 1 is classified as:


NORAD ID: 15384
Int'l Code: 1984-113C
Perigee: 36,168.5 km
Apogee: 36,402.5 km
Inclination: 13.7 °
Period: 1,461.3 minutes
Semi major axis: 42656 km
RCS: 16.1907 m2 (large)
Launch date: November 8, 1984
Source: United States (US)
Launch site: AIR FORCE EASTERN TEST RANGE (AFETR)
aabbcc
Your satellite tracking list
Your tracking list is empty




NASA's NSSDC Master Catalog

Two Line Element Set (TLE):
1 15384U 84113C   19174.56372990 +.00000004 +00000-0 +00000-0 0  9995
2 15384 013.6654 354.8632 0027431 242.9921 293.5524 00.98542821098786
Source of the keplerian elements: AFSPC